Time,TemperatureF,DewpointF,PressureIn,WindDirection,WindDirectionDegrees,WindSpeedMPH,WindSpeedGustMPH,Humidity,HourlyPrecipIn,Conditions,Clouds,dailyrainin,SolarRadiationWatts/m^2,SoftwareType,DateUTC
2013-10-04 00:25:00,61.0,55.0,-100.00,SE,140,1.0,6.0,82,0.00,,,0.00,0.000000,,2013-10-04 04:25:00,
2013-10-04 01:18:00,61.0,55.0,-100.00,SE,140,1.0,6.0,82,0.00,,,0.00,0.000000,,2013-10-04 05:18:00,
2013-10-04 01:25:00,61.0,56.0,-100.00,SE,145,0.0,2.0,83,0.00,,,0.00,0.000000,,2013-10-04 05:25:00,
2013-10-04 02:00:00,61.0,56.0,-100.00,SE,145,0.0,2.0,83,0.00,,,0.00,0.000000,,2013-10-04 06:00:00,
2013-10-04 02:10:00,61.0,56.0,-100.00,SE,145,0.0,2.0,83,0.00,,,0.00,0.000000,,2013-10-04 06:10:00,
2013-10-04 02:20:00,61.0,56.0,-100.00,SE,145,0.0,2.0,83,0.00,,,0.00,0.000000,,2013-10-04 06:20:00,
2013-10-04 02:25:00,61.0,57.0,-100.00,SW,222,0.0,2.0,86,0.00,,,0.00,0.000000,,2013-10-04 06:25:00,
2013-10-04 02:59:00,61.0,57.0,-100.00,SW,222,0.0,2.0,86,0.00,,,0.00,0.000000,,2013-10-04 06:59:00,
2013-10-04 03:09:00,61.0,57.0,-100.00,SW,222,0.0,2.0,86,0.00,,,0.00,0.000000,,2013-10-04 07:09:00,
2013-10-04 03:19:00,61.0,57.0,-100.00,SW,222,0.0,2.0,86,0.00,,,0.00,0.000000,,2013-10-04 07:19:00,
2013-10-04 03:25:00,62.0,61.0,-100.00,SW,230,1.0,4.0,97,0.08,,,0.08,0.000000,,2013-10-04 07:25:00,
2013-10-04 03:59:00,62.0,61.0,-100.00,SW,230,1.0,4.0,97,0.08,,,0.08,0.000000,,2013-10-04 07:59:00,
2013-10-04 04:09:00,62.0,61.0,-100.00,SW,230,1.0,4.0,97,0.08,,,0.08,0.000000,,2013-10-04 08:09:00,
2013-10-04 04:18:00,62.0,61.0,-100.00,SW,230,1.0,4.0,97,0.08,,,0.08,0.000000,,2013-10-04 08:18:00,
2013-10-04 04:25:00,63.0,62.0,-100.00,SSE,162,1.0,12.0,98,0.29,,,0.37,0.000000,,2013-10-04 08:25:00,
2013-10-04 04:59:00,63.0,62.0,-100.00,SSE,162,1.0,12.0,98,0.29,,,0.37,0.000000,,2013-10-04 08:59:00,
2013-10-04 05:09:00,63.0,62.0,-100.00,SSE,162,1.0,12.0,98,0.29,,,0.37,0.000000,,2013-10-04 09:09:00,
2013-10-04 05:18:00,63.0,62.0,-100.00,SSE,162,1.0,12.0,98,0.29,,,0.37,0.000000,,2013-10-04 09:18:00,
2013-10-04 05:25:00,63.0,62.0,-100.00,SE,142,1.0,4.0,98,0.10,,,0.47,0.000000,,2013-10-04 09:25:00,
2013-10-04 06:02:00,63.0,62.0,-100.00,SE,142,1.0,4.0,98,0.10,,,0.47,0.000000,,2013-10-04 10:02:00,
2013-10-04 06:12:00,63.0,62.0,-100.00,SE,142,1.0,4.0,98,0.10,,,0.47,0.000000,,2013-10-04 10:12:00,
2013-10-04 06:22:00,63.0,62.0,-100.00,SE,142,1.0,4.0,98,0.10,,,0.47,0.000000,,2013-10-04 10:22:00,
2013-10-04 06:25:00,63.0,63.0,-100.00,East,79,0.0,2.0,99,0.00,,,0.47,0.000000,,2013-10-04 10:25:00,
2013-10-04 07:02:00,63.0,63.0,-100.00,East,79,0.0,2.0,99,0.00,,,0.47,0.000000,,2013-10-04 11:02:00,
2013-10-04 07:12:00,63.0,63.0,-100.00,East,79,0.0,2.0,99,0.00,,,0.47,0.000000,,2013-10-04 11:12:00,
2013-10-04 07:21:00,63.0,63.0,-100.00,East,79,0.0,2.0,99,0.00,,,0.47,0.000000,,2013-10-04 11:21:00,
2013-10-04 07:25:00,63.0,63.0,-100.00,NNW,331,0.0,2.0,99,0.00,,,0.47,0.000000,,2013-10-04 11:25:00,
2013-10-04 08:02:00,63.0,63.0,-100.00,NNW,331,0.0,2.0,99,0.00,,,0.47,0.000000,,2013-10-04 12:02:00,
2013-10-04 08:11:00,63.0,63.0,-100.00,NNW,331,0.0,2.0,99,0.00,,,0.47,0.000000,,2013-10-04 12:11:00,
2013-10-04 08:21:00,63.0,63.0,-100.00,NNW,331,0.0,2.0,99,0.00,,,0.47,0.000000,,2013-10-04 12:21:00,
2013-10-04 08:25:00,66.0,65.0,-100.00,SW,218,3.0,6.0,98,0.00,,,0.47,13.000000,,2013-10-04 12:25:00,
2013-10-04 09:01:00,66.0,65.0,-100.00,SW,218,3.0,6.0,98,0.00,,,0.47,13.000000,,2013-10-04 13:01:00,
2013-10-04 09:12:00,66.0,65.0,-100.00,SW,218,3.0,6.0,98,0.00,,,0.47,13.000000,,2013-10-04 13:12:00,
2013-10-04 09:21:00,66.0,65.0,-100.00,SW,218,3.0,6.0,98,0.00,,,0.47,13.000000,,2013-10-04 13:21:00,
2013-10-04 09:25:00,67.0,66.0,-100.00,SSW,207,3.0,8.0,96,0.00,,,0.47,33.000000,,2013-10-04 13:25:00,
2013-10-04 10:01:00,67.0,66.0,-100.00,SSW,207,3.0,8.0,96,0.00,,,0.47,33.000000,,2013-10-04 14:01:00,
2013-10-04 10:11:00,67.0,66.0,-100.00,SSW,207,3.0,8.0,96,0.00,,,0.47,33.000000,,2013-10-04 14:11:00,
2013-10-04 10:20:00,67.0,66.0,-100.00,SSW,207,3.0,8.0,96,0.00,,,0.47,33.000000,,2013-10-04 14:20:00,
2013-10-04 10:25:00,69.0,67.0,-100.00,WSW,253,3.0,6.0,94,0.00,,,0.47,81.000000,,2013-10-04 14:25:00,
2013-10-04 11:02:00,69.0,67.0,-100.00,WSW,253,3.0,6.0,94,0.00,,,0.47,81.000000,,2013-10-04 15:02:00,
2013-10-04 11:12:00,69.0,67.0,-100.00,WSW,253,3.0,6.0,94,0.00,,,0.47,81.000000,,2013-10-04 15:12:00,
2013-10-04 11:21:00,69.0,67.0,-100.00,WSW,253,3.0,6.0,94,0.00,,,0.47,81.000000,,2013-10-04 15:21:00,
2013-10-04 11:25:00,71.0,67.0,-100.00,WSW,255,5.0,12.0,87,0.00,,,0.47,245.000000,,2013-10-04 15:25:00,
2013-10-04 12:02:00,71.0,67.0,-100.00,WSW,255,5.0,12.0,87,0.00,,,0.47,245.000000,,2013-10-04 16:02:00,
2013-10-04 12:12:00,71.0,67.0,-100.00,WSW,255,5.0,12.0,87,0.00,,,0.47,245.000000,,2013-10-04 16:12:00,
2013-10-04 12:22:00,71.0,67.0,-100.00,WSW,255,5.0,12.0,87,0.00,,,0.47,245.000000,,2013-10-04 16:22:00,
2013-10-04 12:25:00,70.0,67.0,-100.00,NNW,327,3.0,8.0,90,0.00,,,0.47,145.000000,,2013-10-04 16:25:00,
2013-10-04 13:02:00,70.0,67.0,-100.00,NNW,327,3.0,8.0,90,0.00,,,0.47,145.000000,,2013-10-04 17:02:00,
2013-10-04 13:12:00,70.0,67.0,-100.00,NNW,327,3.0,8.0,90,0.00,,,0.47,145.000000,,2013-10-04 17:12:00,
2013-10-04 13:22:00,70.0,67.0,-100.00,NNW,327,3.0,8.0,90,0.00,,,0.47,145.000000,,2013-10-04 17:22:00,
2013-10-04 13:25:00,66.0,65.0,-100.00,NNE,14,3.0,8.0,96,0.02,,,0.49,73.000000,,2013-10-04 17:25:00,
2013-10-04 14:05:00,66.0,65.0,-100.00,NNE,14,3.0,8.0,96,0.02,,,0.49,73.000000,,2013-10-04 18:05:00,
2013-10-04 14:15:00,66.0,65.0,-100.00,NNE,14,3.0,8.0,96,0.02,,,0.49,73.000000,,2013-10-04 18:15:00,
2013-10-04 14:56:00,67.0,66.0,-100.00,NNE,30,3.0,7.0,95,0.01,,,0.50,159.000000,,2013-10-04 18:56:00,
2013-10-04 15:02:00,67.0,66.0,-100.00,NNE,30,3.0,7.0,95,0.01,,,0.50,159.000000,,2013-10-04 19:02:00,
2013-10-04 15:12:00,67.0,66.0,-100.00,NNE,30,3.0,7.0,95,0.01,,,0.50,159.000000,,2013-10-04 19:12:00,
2013-10-04 15:22:00,67.0,66.0,-100.00,NNE,30,3.0,7.0,95,0.01,,,0.50,159.000000,,2013-10-04 19:22:00,
2013-10-04 15:53:00,67.0,65.0,-100.00,NE,49,4.0,7.0,94,0.00,,,0.50,123.000000,,2013-10-04 19:53:00,
2013-10-04 16:02:00,67.0,65.0,-100.00,NE,49,4.0,7.0,94,0.00,,,0.50,123.000000,,2013-10-04 20:02:00,
2013-10-04 16:11:00,67.0,65.0,-100.00,NE,49,4.0,7.0,94,0.00,,,0.50,123.000000,,2013-10-04 20:11:00,
2013-10-04 16:22:00,67.0,65.0,-100.00,NE,49,4.0,7.0,94,0.00,,,0.50,123.000000,,2013-10-04 20:22:00,
2013-10-04 16:53:00,65.0,64.0,-100.00,NE,52,4.0,7.0,95,0.00,,,0.50,52.000000,,2013-10-04 20:53:00,
2013-10-04 17:01:00,65.0,64.0,-100.00,NE,52,4.0,7.0,95,0.00,,,0.50,52.000000,,2013-10-04 21:01:00,
2013-10-04 17:12:00,65.0,64.0,-100.00,NE,52,4.0,7.0,95,0.00,,,0.50,52.000000,,2013-10-04 21:12:00,
2013-10-04 17:22:00,65.0,64.0,-100.00,NE,52,4.0,7.0,95,0.00,,,0.50,52.000000,,2013-10-04 21:22:00,
2013-10-04 17:54:00,63.0,62.0,-100.00,NNE,29,4.0,8.0,97,0.00,,,0.50,47.000000,,2013-10-04 21:54:00,
2013-10-04 18:03:00,63.0,62.0,-100.00,NNE,29,4.0,8.0,97,0.00,,,0.50,47.000000,,2013-10-04 22:03:00,
2013-10-04 18:12:00,63.0,62.0,-100.00,NNE,29,4.0,8.0,97,0.00,,,0.50,47.000000,,2013-10-04 22:12:00,
2013-10-04 18:23:00,63.0,62.0,-100.00,NNE,29,4.0,8.0,97,0.00,,,0.50,47.000000,,2013-10-04 22:23:00,
2013-10-04 18:53:00,62.0,61.0,-100.00,ENE,72,4.0,8.0,97,0.00,,,0.50,9.000000,,2013-10-04 22:53:00,
2013-10-04 19:03:00,62.0,61.0,-100.00,ENE,72,4.0,8.0,97,0.00,,,0.50,9.000000,,2013-10-04 23:03:00,
2013-10-04 19:12:00,62.0,61.0,-100.00,ENE,72,4.0,8.0,97,0.00,,,0.50,9.000000,,2013-10-04 23:12:00,
2013-10-04 19:22:00,62.0,61.0,-100.00,ENE,72,4.0,8.0,97,0.00,,,0.50,9.000000,,2013-10-04 23:22:00,
2013-10-04 19:53:00,62.0,61.0,-100.00,ESE,121,3.0,5.0,95,0.00,,,0.50,0.000000,,2013-10-04 23:53:00,
2013-10-04 20:02:00,62.0,61.0,-100.00,ESE,121,3.0,5.0,95,0.00,,,0.50,0.000000,,2013-10-05 00:02:00,
2013-10-04 20:12:00,62.0,61.0,-100.00,ESE,121,3.0,5.0,95,0.00,,,0.50,0.000000,,2013-10-05 00:12:00,
2013-10-04 20:23:00,62.0,61.0,-100.00,ESE,121,3.0,5.0,95,0.00,,,0.50,0.000000,,2013-10-05 00:23:00,
2013-10-04 20:53:00,61.0,59.0,-100.00,ENE,59,5.0,7.0,94,0.00,,,0.50,0.000000,,2013-10-05 00:53:00,
2013-10-04 21:02:00,61.0,59.0,-100.00,ENE,59,5.0,7.0,94,0.00,,,0.50,0.000000,,2013-10-05 01:02:00,
2013-10-04 21:11:00,61.0,59.0,-100.00,ENE,59,5.0,7.0,94,0.00,,,0.50,0.000000,,2013-10-05 01:11:00,
2013-10-04 21:22:00,61.0,59.0,-100.00,ENE,59,5.0,7.0,94,0.00,,,0.50,0.000000,,2013-10-05 01:22:00,
2013-10-04 21:52:00,60.0,58.0,-100.00,ESE,110,5.0,8.0,94,0.00,,,0.50,0.000000,,2013-10-05 01:52:00,
2013-10-04 22:03:00,60.0,58.0,-100.00,ESE,110,5.0,8.0,94,0.00,,,0.50,0.000000,,2013-10-05 02:03:00,
2013-10-04 22:11:00,60.0,58.0,-100.00,ESE,110,5.0,8.0,94,0.00,,,0.50,0.000000,,2013-10-05 02:11:00,
2013-10-04 22:22:00,60.0,58.0,-100.00,ESE,110,5.0,8.0,94,0.00,,,0.50,0.000000,,2013-10-05 02:22:00,
2013-10-04 22:52:00,60.0,59.0,-100.00,East,84,3.0,8.0,95,0.00,,,0.50,0.000000,,2013-10-05 02:52:00,
2013-10-04 23:03:00,60.0,59.0,-100.00,East,84,3.0,8.0,95,0.00,,,0.50,0.000000,,2013-10-05 03:03:00,
2013-10-04 23:12:00,60.0,59.0,-100.00,East,84,3.0,8.0,95,0.00,,,0.50,0.000000,,2013-10-05 03:12:00,
2013-10-04 23:23:00,60.0,59.0,-100.00,East,84,3.0,8.0,95,0.00,,,0.50,0.000000,,2013-10-05 03:23:00,
2013-10-04 23:55:00,60.0,59.0,-100.00,ENE,78,3.0,7.0,95,0.00,,,0.50,0.000000,,2013-10-05 03:55:00,